Total_Precipitation_Accumulation
0.03 0.02 0.04 0.03 0.02 0.02 0.02 0.03 0.03 0.04 0.05 0.04 0.04 0.04 0.03 0.01 0.00 0.00 0.00 0.02 0.08 0.27 0.36 0.19 0.01 0.00 0.00 0.01 0.02 0.02 0.02 0.07 0.10 0.15 0.15 0.23 0.10 0.03 0.02 0.05 0.16 0.12 0.13
0.05 0.02 0.06 0.02 0.02 0.03 0.03 0.04 0.03 0.04 0.05 0.07 0.06 0.06 0.05 0.01 0.01 0.02 0.02 0.13 0.41 0.35 0.10 0.02 0.00 0.01 0.01 0.00 0.00 0.00 0.00 0.01 0.00 0.01 0.01 0.03 0.03 0.05 0.07 0.08 0.30 0.22 0.15
0.11 0.04 0.03 0.04 0.03 0.04 0.04 0.04 0.02 0.02 0.05 0.10 0.12 0.07 0.05 0.01 0.01 0.02 0.04 0.11 0.48 0.47 0.08 0.05 0.02 0.01 0.01 0.00 0.00 0.00 0.00 0.00 0.00 0.02 0.02 0.00 0.00 0.07 0.20 0.34 0.37 0.19 0.17
0.12 0.16 0.02 0.05 0.04 0.03 0.03 0.02 0.01 0.01 0.02 0.06 0.09 0.10 0.06 0.03 0.03 0.04 0.06 0.11 0.34 0.69 0.30 0.05 0.00 0.00 0.00 0.00 0.00 0.00 0.02 0.01 0.00 0.01 0.00 0.00 0.00 0.08 0.21 0.40 0.41 0.25 0.08
0.26 0.50 0.30 0.16 0.12 0.06 0.02 0.02 0.01 0.01 0.02 0.04 0.08 0.17 0.15 0.11 0.08 0.05 0.11 0.20 0.35 0.42 0.51 0.31 0.00 0.00 0.00 0.00 0.00 0.00 0.00 0.00 0.00 0.01 0.00 0.00 0.00 0.14 0.28 0.35 0.16 0.14 0.09
0.19 0.40 0.56 0.33 0.28 0.18 0.08 0.02 0.03 0.01 0.02 0.03 0.04 0.08 0.11 0.16 0.16 0.22 0.31 0.15 0.10 0.17 0.30 0.43 0.09 0.01 0.00 0.00 0.00 0.00 0.00 0.00 0.01 0.01 0.00 0.00 0.00 0.07 0.24 0.23 0.15 0.17 0.10
0.12 0.09 0.17 0.51 0.53 0.38 0.24 0.13 0.08 0.05 0.04 0.04 0.06 0.05 0.17 0.23 0.36 0.33 0.18 0.05 0.07 0.09 0.21 0.32 0.19 0.06 0.00 0.00 0.00 0.00 0.00 0.00 0.02 0.01 0.00 0.00 0.01 0.01 0.07 0.10 0.12 0.20 0.12
0.04 0.11 0.12 0.27 0.40 0.42 0.40 0.35 0.21 0.18 0.11 0.15 0.18 0.18 0.19 0.33 0.34 0.27 0.28 0.12 0.04 0.02 0.07 0.08 0.13 0.10 0.01 0.00 0.00 0.00 0.00 0.00 0.01 0.00 0.00 0.00 0.00 0.03 0.05 0.09 0.09 0.06 0.07
0.00 0.00 0.03 0.08 0.14 0.20 0.43 0.68 0.57 0.30 0.22 0.18 0.21 0.29 0.27 0.27 0.30 0.29 0.32 0.23 0.15 0.12 0.12 0.08 0.07 0.06 0.01 0.00 0.00 0.00 0.00 0.00 0.00 0.00 0.00 0.00 0.05 0.25 0.18 0.08 0.04 0.05 0.06
0.00 0.00 0.00 0.00 0.00 0.01 0.05 0.15 0.28 0.28 0.20 0.12 0.13 0.22 0.27 0.21 0.15 0.16 0.18 0.16 0.26 0.23 0.15 0.09 0.01 0.01 0.00 0.00 0.00 0.00 0.00 0.00 0.00 0.00 0.00 0.00 0.25 0.50 0.12 0.02 0.02 0.01 0.02
0.00 0.00 0.00 0.00 0.00 0.00 0.01 0.04 0.14 0.17 0.16 0.12 0.12 0.13 0.16 0.24 0.24 0.10 0.03 0.03 0.13 0.25 0.27 0.22 0.11 0.07 0.04 0.01 0.00 0.00 0.00 0.00 0.00 0.00 0.00 0.02 0.44 0.39 0.12 0.03 0.00 0.01 0.01
0.00 0.00 0.00 0.00 0.00 0.00 0.00 0.00 0.04 0.09 0.15 0.16 0.14 0.18 0.19 0.21 0.29 0.27 0.16 0.05 0.09 0.18 0.22 0.33 0.39 0.22 0.01 0.00 0.00 0.00 0.00 0.00 0.00 0.00 0.00 0.12 0.48 0.25 0.10 0.02 0.00 0.00 0.00
0.00 0.00 0.00 0.00 0.00 0.00 0.00 0.00 0.00 0.02 0.08 0.15 0.22 0.25 0.36 0.46 0.47 0.32 0.23 0.13 0.11 0.11 0.05 0.12 0.16 0.05 0.01 0.00 0.00 0.00 0.00 0.00 0.00 0.00 0.00 0.26 0.44 0.24 0.11 0.02 0.00 0.00 0.00
0.00 0.00 0.00 0.00 0.00 0.00 0.00 0.00 0.00 0.00 0.00 0.01 0.09 0.26 0.34 0.38 0.42 0.47 0.43 0.37 0.41 0.40 0.27 0.24 0.17 0.18 0.13 0.06 0.03 0.00 0.00 0.00 0.00 0.00 0.04 0.31 0.38 0.29 0.13 0.04 0.00 0.00 0.00
0.00 0.00 0.00 0.00 0.00 0.00 0.00 0.00 0.00 0.00 0.00 0.00 0.01 0.12 0.62 0.73 0.55 0.58 0.55 0.39 0.33 0.38 0.35 0.31 0.26 0.20 0.13 0.09 0.06 0.02 0.00 0.00 0.00 0.03 0.14 0.30 0.33 0.25 0.20 0.03 0.00 0.00 0.00
0.00 0.00 0.00 0.00 0.00 0.00 0.00 0.00 0.00 0.00 0.00 0.00 0.00 0.01 0.04 0.36 0.74 0.95 1.30 1.67 1.41 0.80 0.54 0.43 0.33 0.35 0.35 0.38 0.35 0.20 0.10 0.05 0.03 0.04 0.10 0.14 0.21 0.22 0.21 0.11 0.02 0.01 0.00
0.00 0.00 0.00 0.00 0.00 0.00 0.00 0.00 0.00 0.00 0.00 0.00 0.00 0.00 0.00 0.04 0.19 0.86 1.24 1.42 1.79 1.74 1.27 1.02 1.11 1.13 0.78 0.53 0.50 0.45 0.26 0.13 0.06 0.06 0.08 0.07 0.05 0.10 0.16 0.16 0.04 0.02 0.01
0.00 0.00 0.00 0.00 0.00 0.00 0.00 0.00 0.00 0.00 0.00 0.00 0.00 0.01 0.00 0.00 0.04 0.17 0.64 0.76 0.81 0.92 1.03 0.93 0.70 0.68 0.68 0.52 0.33 0.19 0.10 0.04 0.03 0.06 0.05 0.06 0.06 0.03 0.09 0.15 0.07 0.03 0.01
0.00 0.00 0.00 0.00 0.00 0.00 0.00 0.00 0.00 0.00 0.00 0.00 0.00 0.00 0.00 0.00 0.00 0.01 0.05 0.25 0.35 0.41 0.51 0.54 0.50 0.54 0.50 0.46 0.31 0.19 0.11 0.06 0.04 0.07 0.06 0.06 0.12 0.08 0.09 0.17 0.09 0.03 0.03
0.00 0.00 0.00 0.00 0.00 0.00 0.00 0.00 0.00 0.00 0.00 0.00 0.00 0.00 0.00 0.00 0.00 0.00 0.01 0.05 0.04 0.07 0.12 0.15 0.19 0.25 0.35 0.31 0.17 0.15 0.17 0.15 0.12 0.10 0.11 0.09 0.11 0.12 0.10 0.10 0.10 0.05 0.06
0.00 0.00 0.00 0.00 0.00 0.00 0.00 0.00 0.00 0.00 0.00 0.00 0.01 0.00 0.00 0.00 0.00 0.00 0.01 0.01 0.03 0.03 0.02 0.04 0.09 0.19 0.34 0.24 0.17 0.21 0.14 0.08 0.08 0.12 0.12 0.15 0.15 0.15 0.17 0.12 0.07 0.05 0.10
0.00 0.00 0.00 0.00 0.00 0.00 0.00 0.00 0.00 0.00 0.00 0.00 0.01 0.01 0.00 0.00 0.00 0.01 0.02 0.01 0.02 0.04 0.08 0.09 0.04 0.07 0.14 0.16 0.17 0.23 0.30 0.27 0.18 0.09 0.06 0.08 0.11 0.13 0.16 0.16 0.13 0.07 0.03
0.00 0.00 0.00 0.00 0.00 0.00 0.00 0.00 0.00 0.00 0.00 0.00 0.01 0.01 0.01 0.00 0.00 0.01 0.04 0.04 0.04 0.04 0.04 0.04 0.06 0.06 0.07 0.08 0.05 0.13 0.17 0.20 0.23 0.28 0.18 0.12 0.11 0.10 0.10 0.12 0.09 0.09 0.07
0.00 0.00 0.00 0.00 0.00 0.00 0.00 0.00 0.00 0.00 0.00 0.00 0.00 0.00 0.01 0.02 0.01 0.01 0.03 0.05 0.05 0.06 0.05 0.04 0.02 0.04 0.07 0.08 0.08 0.07 0.05 0.04 0.07 0.17 0.18 0.23 0.29 0.32 0.27 0.23 0.16 0.10 0.08
0.00 0.00 0.00 0.00 0.00 0.00 0.00 0.00 0.00 0.00 0.00 0.00 0.00 0.00 0.01 0.02 0.02 0.02 0.03 0.07 0.06 0.05 0.06 0.06 0.04 0.04 0.05 0.09 0.09 0.08 0.08 0.07 0.06 0.04 0.06 0.08 0.15 0.26 0.32 0.26 0.15 0.11 0.10
0.00 0.00 0.00 0.00 0.00 0.00 0.00 0.00 0.00 0.00 0.00 0.01 0.00 0.01 0.02 0.02 0.03 0.03 0.05 0.11 0.09 0.07 0.06 0.06 0.06 0.06 0.06 0.06 0.09 0.15 0.10 0.06 0.05 0.05 0.04 0.06 0.07 0.07 0.11 0.12 0.11 0.15 0.17